Satellite: PHARMSAT
Catalog number: 35002
Epoch time:      10266.58932248
Element set:     366
Inclination:      040.4711 deg
RA of node:       340.3126 deg
Eccentricity:    0.0024496
Arg of perigee:   022.0283 deg
Mean anomaly:     338.1580 deg
Mean motion:   15.43193236 rev/day
Decay rate:      5.954e-05 rev/day^2
Epoch rev:            7585
Checksum:              280

Satellite: HAWKSAT1
Catalog number: 35003
Epoch time:      10265.62701669
Element set:     396
Inclination:      040.4617 deg
RA of node:       337.6823 deg
Eccentricity:    0.0022165
Arg of perigee:   035.4209 deg
Mean anomaly:     324.8077 deg
Mean motion:   15.47301423 rev/day
Decay rate:     1.3877e-04 rev/day^2
Epoch rev:            7580
Checksum:              288

Satellite: CP6
Catalog number: 35004
Epoch time:      10265.56097960
Element set:     392
Inclination:      040.4623 deg
RA of node:       336.2687 deg
Eccentricity:    0.0021433
Arg of perigee:   039.2157 deg
Mean anomaly:     321.0212 deg
Mean motion:   15.48525320 rev/day
Decay rate:     1.6993e-04 rev/day^2
Epoch rev:            7580
Checksum:              283

Satellite: AEROCUB3
Catalog number: 35005
Epoch time:      10266.56295885
Element set:     460
Inclination:      040.4689 deg
RA of node:       321.1281 deg
Eccentricity:    0.0020400
Arg of perigee:   073.2787 deg
Mean anomaly:     287.0272 deg
Mean motion:   15.59266608 rev/day
Decay rate:     6.8428e-04 rev/day^2
Epoch rev:            7606
Checksum:              308

Satellite: CASTOR
Catalog number: 35694
Epoch time:      10230.44082147
Element set:     655
Inclination:      051.5930 deg
RA of node:       222.0149 deg
Eccentricity:    0.0004218
Arg of perigee:   308.0851 deg
Mean anomaly:     053.0105 deg
Mean motion:   16.48877011 rev/day
Decay rate:   7.179566e-02 rev/day^2
Epoch rev:            6110
Checksum:              273

Satellite: METEOR-M
Catalog number: 35865
Epoch time:      10266.72493621
Element set:     682
Inclination:      098.7476 deg
RA of node:       319.7666 deg
Eccentricity:    0.0003385
Arg of perigee:   076.8451 deg
Mean anomaly:     283.3063 deg
Mean motion:   14.21831589 rev/day
Decay rate:       1.76e-06 rev/day^2
Epoch rev:            5272
Checksum:              328

Satellite: RS-38
Catalog number: 35869
Epoch time:      10266.68568413
Element set:     693
Inclination:      098.7463 deg
RA of node:       319.7665 deg
Eccentricity:    0.0005413
Arg of perigee:   078.5901 deg
Mean anomaly:     281.5866 deg
Mean motion:   14.21989016 rev/day
Decay rate:       1.77e-06 rev/day^2
Epoch rev:            5272
Checksum:              351

/EX


_______________________________________________
Via the Keps mailing list courtesy of AMSAT-NA
http://amsat.org/mailman/listinfo/keps

--- ViaMAIL!/WC v1.60d
 * Origin: Chowdanet (401-724-4410) telnet://chowdanet.com  (1:323/120)